Location: Newark
(45.4041°N, 17.9426°E)
Time: 14:58:16
(UTC+00:00)

Envisat - Pass Details

Date: 23 September 2019
Orbit: 764 x 766 km, 98.1° (Epoch: 22 October)

Event Time Altitude Azimuth Distance (km) Brightness Sun altitude
Rises 17:31:02 0° 186° (S) 3,219 6.2 -8.9°
Reaches altitude 10° 17:33:29 10° 194° (SSW) 2,298 5.5 -9.4°
Maximum altitude 17:38:12 39° 263° (W) 1,144 4.6 -10.2°
Drops below altitude 10° 17:42:57 10° 332° (NNW) 2,313 6.1 -11.0°
Sets 17:45:26 0° 340° (NNW) 3,244 6.7 -11.4°
